Springfield, IL

8:56 AM CDT on October 19, 2017 (GMT -0500)
Capital

Weather History for KSPI - September, 2014

Change the Weather History Date:

Tuesday, September 2, 2014

  Actual Average Record
Temperature  
Mean Temperature 76 °F 72 °F  
Max Temperature 84 °F 83 °F 101 °F (2011)
Min Temperature 68 °F 60 °F 42 °F (2017)
Degree Days  
Heating Degree Days 0 0  
Month to date heating degree days 0 0  
Since 1 July heating degree days 3 5  
Cooling Degree Days 11 7  
Month to date cooling degree days 24 14  
Year to date cooling degree days 1057 984  
Growing Degree Days 26 (Base 50)    
Moisture  
Dew Point 68 °F    
Average Humidity 79    
Maximum Humidity 100    
Minimum Humidity 58    
Precipitation  
Precipitation 0.10 in 0.09 in 3.55 in (2010)
Month to date precipitation 0.29 0.19  
Year to date precipitation 32.62 25.84  
Snow  
Snow 0.00 in 0.00 in 0.00 in ()
Month to date snowfall 0.0 0.0  
Since 1 July snowfall 0.0 0.0  
Since 1 September snowfall 0.0 0.0  
Snow Depth 0.00 in    
Sea Level Pressure  
Sea Level Pressure 29.93 in    
Wind  
Wind Speed 5 mph (SW)    
Max Wind Speed 15 mph    
Max Gust Speed 20 mph    
Visibility 10 miles    
Events Rain , Thunderstorm    
T = Trace of Precipitation, MM = Missing Value Source: NWS Daily Summary

Daily Weather History Graph

Daily Weather History Graph

Search for Another Location

Airport or City:

Trip Planner

Search our weather history database for the weather conditions in past years. The results will help you decide how hot, cold, wet, or windy it might be!

Date:

Astronomy

Sep. 02, 2014 Rise Set
Actual Time 6:27 AM CDT 7:28 PM CDT
Civil Twilight 5:59 AM CDT 7:55 PM CDT
Nautical Twilight 5:27 AM CDT 8:28 PM CDT
Astronomical Twilight 4:52 AM CDT 9:02 PM CDT
Moon 2:11 PM CDT (9/2) No Moon Set
Length of Visible Light 13h 56m
Length of Day
13h 00m
First Quarter, 53% of the Moon is Illuminated
Sep 2
First Quarter
Sep 8
Full
Sep 15
Last Quarter
Sep 24
New
Oct 1
First Quarter

Hourly Weather History & Observations

Time (CDT) Temp. Heat Index Dew Point Humidity Pressure Visibility Wind Dir Wind Speed Gust Speed Precip Events Conditions
12:52 AM 71.1 °F - 69.1 °F 93% 29.88 in 10.0 mi Calm Calm - 0.00 in   Mostly Cloudy
1:50 AM 71.6 °F - 69.8 °F 94% 29.92 in 7.0 mi SSW 5.8 mph - 0.03 in Rain , Thunderstorm Light Rain
1:52 AM 71.1 °F - 69.1 °F 93% 29.91 in 8.0 mi SSW 5.8 mph - 0.03 in Rain , Thunderstorm Light Rain
2:05 AM 71.1 °F - 68.0 °F 90% 29.87 in 10.0 mi SSE 13.8 mph - 0.01 in Rain Rain
2:28 AM 70.0 °F - 69.1 °F 97% 29.91 in 10.0 mi WSW 4.6 mph - 0.05 in Rain Light Rain
2:52 AM 70.0 °F - 69.1 °F 97% 29.91 in 10.0 mi SSW 10.4 mph - 0.06 in Rain Light Rain
3:27 AM 70.0 °F - 69.1 °F 97% 29.90 in 10.0 mi SSW 3.5 mph - 0.01 in   Overcast
3:37 AM 71.1 °F - 69.1 °F 93% 29.90 in 10.0 mi SSW 4.6 mph - 0.01 in   Overcast
3:52 AM 71.1 °F - 69.1 °F 93% 29.88 in 10.0 mi South 6.9 mph - 0.01 in   Overcast
4:52 AM 71.1 °F - 68.0 °F 90% 29.89 in 10.0 mi South 3.5 mph - N/A   Overcast
5:52 AM 70.0 °F - 68.0 °F 93% 29.90 in 10.0 mi WSW 4.6 mph - N/A   Overcast
6:24 AM 70.0 °F - 68.0 °F 93% 29.92 in 10.0 mi Calm Calm - N/A   Overcast
6:52 AM 70.0 °F - 68.0 °F 93% 29.91 in 10.0 mi WSW 4.6 mph - N/A   Overcast
6:59 AM 70.0 °F - 68.0 °F 93% 29.92 in 10.0 mi WSW 3.5 mph - N/A   Overcast
7:52 AM 71.1 °F - 68.0 °F 90% 29.92 in 10.0 mi WSW 5.8 mph - N/A   Overcast
8:20 AM 71.1 °F - 68.0 °F 90% 29.94 in 10.0 mi WSW 3.5 mph - N/A   Overcast
8:31 AM 71.1 °F - 68.0 °F 90% 29.93 in 10.0 mi SW 4.6 mph - N/A   Overcast
8:52 AM 72.0 °F - 66.9 °F 84% 29.94 in 10.0 mi SW 4.6 mph - N/A   Scattered Clouds
9:08 AM 72.0 °F - 66.9 °F 84% 29.95 in 10.0 mi SW 5.8 mph - N/A   Mostly Cloudy
9:52 AM 73.0 °F - 68.0 °F 84% 29.95 in 10.0 mi WSW 5.8 mph - N/A   Overcast
10:02 AM 73.9 °F - 68.0 °F 82% 29.96 in 10.0 mi West 5.8 mph - N/A   Overcast
10:52 AM 75.0 °F - 68.0 °F 79% 29.95 in 10.0 mi Variable 4.6 mph - N/A   Overcast
11:52 AM 75.9 °F - 68.0 °F 76% 29.95 in 10.0 mi WSW 5.8 mph - N/A   Overcast
12:52 PM 78.1 °F - 69.1 °F 74% 29.95 in 10.0 mi North - - N/A   Mostly Cloudy
1:06 PM 80.1 °F 82.7 °F 68.0 °F 67% 29.96 in 10.0 mi WSW 6.9 mph - N/A   Scattered Clouds
1:52 PM 81.0 °F 83.8 °F 68.0 °F 65% 29.96 in 10.0 mi WSW 6.9 mph - N/A   Scattered Clouds
2:52 PM 82.0 °F 84.9 °F 68.0 °F 62% 29.95 in 10.0 mi NW 6.9 mph - N/A   Partly Cloudy
3:52 PM 82.9 °F 85.4 °F 66.9 °F 58% 29.93 in 10.0 mi Variable 4.6 mph - N/A   Mostly Cloudy
4:52 PM 82.0 °F 84.1 °F 66.0 °F 58% 29.92 in 10.0 mi WNW 4.6 mph - N/A   Clear
5:52 PM 82.0 °F 84.1 °F 66.0 °F 58% 29.91 in 10.0 mi NW 5.8 mph - N/A   Clear
6:52 PM 81.0 °F 83.3 °F 66.9 °F 62% 29.91 in 10.0 mi NW 3.5 mph - N/A   Clear
7:52 PM 73.0 °F - 69.1 °F 87% 29.93 in 10.0 mi SSW 4.6 mph - N/A   Clear
8:52 PM 71.1 °F - 66.9 °F 87% 29.96 in 10.0 mi SW 4.6 mph - N/A   Clear
9:52 PM 69.8 °F - 66.2 °F 88% 29.99 in 10.0 mi Calm Calm - N/A   Partly Cloudy
10:52 PM 69.1 °F - 66.0 °F 90% 30.00 in 10.0 mi SW 4.6 mph - 0.00 in Rain Light Rain
11:52 PM 69.1 °F - 64.9 °F 87% 30.00 in 10.0 mi SW 3.5 mph - 0.00 in   Partly Cloudy